RADUGA 4 (10987 NORAD) Tracking and Keplerian Element Data

This shows tracking and keplerian element data for the satellite.

Feedback or suggestion? Click here.




ElementValue
Catalog10987
NameRADUGA 4
Epoch Orbit11780
Epoch Day353.78841903
Epoch Year2025
RAAN280.7615
Inclination5.2432
Eccentricity0.0011711
Argument of Perigee23.0419
Mean Anonmoly178.5526
Mean Motion1.00289263
Decay Rate-3.21E-06
L11 10987U 78073A 25353.78841903 -.00000321 00000+0 00000+0 0 9993
L22 10987 5.2432 280.7615 0011711 23.0419 178.5526 1.00289263117804



Live tracking and technical data element details for RADUGA 4 (NORAD 10987). RADUGA 4 can be tracked NOW for your location showing map with azimuth and elevation plus other details from your city location.







IsCatalogInMostPopularTable: catalog: 10987, numindb: 348
Update: records affected: 1



GetName: 10987 RADUGA 4

Hit Count: updated at: Sat, 14 Mar 2026 03:11:20 GMT